Regional Weather Roundup
Issued by NWS

Home | Current Version | Previous Version | Graphics & Text | Print | Product List | Glossary On
Versions: 1 2 3 4 5 6 7 8 9 10 11 12 13 14 15 16 17 18 19 20 21 22 23 24 25 26 27 28 29 30 31 32 33 34 35 36 37 38 39 40 41 42 43 44 45 46 47 48 49 50
000
ASUS43 KLMK 221702
RWRKY
KENTUCKY REGIONAL WEATHER ROUNDUP
NATIONAL WEATHER SERVICE LOUISVILLE KY
1200 PM EST WED FEB 22 2017

NOTE "FAIR" INDICATES FEW OR NO CLOUDS BELOW 12,000 FEET
WITH NO SIGNIFICANT WEATHER AND/OR OBSTRUCTIONS TO VISIBILITY.

KYZ001>023-026-027-061>063-070>075-221800-
WESTERN AND SOUTH CENTRAL KENTUCKY

CITY           SKY/WX    TMP DP  RH WIND       PRES   REMARKS
PADUCAH        PTSUNNY   65  56  72 SE6       29.88F
HENDERSON      PTSUNNY   64  55  72 CALM      29.87F
OWENSBORO      NOT AVBL
HOPKINSVILLE   PTSUNNY   64  58  81 CALM      29.89F
BOWLING GREEN  MOSUNNY   66  58  75 SE6       29.91S
GLASGOW        NOT AVBL
$$

KYZ024-025-028>034-038-045-046-053-221800-
NORTH CENTRAL KENTUCKY

CITY           SKY/WX    TMP DP  RH WIND       PRES   REMARKS
LOUISVILLE/SDF CLOUDY    66  54  65 S6        29.90F
LOUISVILLE/LOU CLOUDY    65  55  70 VRB6      29.91F
FORT KNOX      CLOUDY    64  57  78 S6        29.89F
$$

KYZ035>037-039>044-047>052-055>060-089>105-221800-
NORTHEAST KENTUCKY

CITY           SKY/WX    TMP DP  RH WIND       PRES   REMARKS
LEXINGTON      CLOUDY    63  56  78 S9        29.92F
COVINGTON      CLOUDY    59  57  93 S9        29.90F
FRANKFORT      CLOUDY    63  55  75 S8        29.90F
$$

KYZ054-064>069-076>088-106>120-221800-
SOUTHEAST KENTUCKY

CITY           SKY/WX    TMP DP  RH WIND       PRES   REMARKS
JACKSON        LGT RAIN  55  53  93 CALM      29.96S FOG
LONDON         CLOUDY    57  53  86 CALM      29.95F
SOMERSET       CLOUDY    55  55 100 CALM      29.95F
MIDDLESBORO    DRIZZLE   55  54  97 CALM      29.98F
MONTICELLO     CLOUDY    59  56  89 E8        29.95F
$$





USA.gov is the U.S. government's official web portal to all federal, state and local government web resources and services.